Location: Bakhuizen
(52.8696°N, 5.4575°E)
Time: 09:20:35
(UTC+00:00)

CZ-4C R/B - Pass Details

Date: 11 May 2021
Orbit: 609 x 1392 km, 63.4° (Epoch: 15 June)

Event Time Altitude Azimuth Distance (km) Brightness Sun altitude
Rises 20:26:31 0° 313° (NW) 3,739 8.1 -8.2°
Reaches altitude 10° 20:28:57 10° 311° (NW) 2,891 6.7 -8.5°
Maximum altitude 20:35:55 70° 230° (SW) 1,280 3.1 -9.2°
Enters shadow 20:43:46 11° 149° (SSE) 3,255 4.6 -10.0°
